This demonstration page uses our WeatherBlox Daily Observations layout. Learn more.

Left ArrowRight Arrow

Hourly Observations for May 26, 2016

Temp ( °F °C ) Dew Point ( °F °C ) Humidity (%) Winds ( mph kmh ) Pressure ( in mb ) Visibility ( mi km ) Precip ( " mm )
12:51 am 00:51 Clear 67 19.4 21 -6.1 17 17 NNW 15 24 29.78 1009 10 16 0.00 0.00
1:51 am 01:51 Clear 66 18.9 21 -6.1 18 18 NW 15 24 29.78 1009 10 16 0.00 0.00
2:51 am 02:51 Clear 65 18.3 19 -7.2 17 17 NW 17 28 29.78 1009 10 16 0.00 0.00
3:51 am 03:51 Clear 63 17.2 16 -8.9 16 16 NW 16 26 29.80 1009 10 16 0.00 0.00
4:51 am 04:51 Clear 62 16.7 15 -9.4 16 16 NNW 13 20 29.81 1009 10 16 0.00 0.00
5:51 am 05:51 Sunny 61 16.1 20 -6.7 20 20 WNW 8 13 29.83 1010 10 16 0.00 0.00
6:51 am 06:51 Sunny 64 17.8 22 -5.6 20 20 WNW 12 19 29.84 1011 10 16 0.00 0.00
7:51 am 07:51 Sunny 68 20 24 -4.4 19 19 NW 13 20 29.84 1011 10 16 0.00 0.00
8:51 am 08:51 Sunny 71 21.7 22 -5.6 16 16 WNW 10 17 29.84 1010 10 16 0.00 0.00
9:51 am 09:51 Sunny 72 22.2 21 -6.1 15 15 WNW 9 15 29.83 1010 10 16 0.00 0.00
10:51 am 10:51 Sunny 74 23.3 20 -6.7 13 13 VRB 5 7 29.83 1010 10 16 0.00 0.00
11:51 am 11:51 Sunny 75 23.9 19 -7.2 12 12 W 10 17 29.82 1010 10 16 0.00 0.00
12:51 pm 12:51 Sunny 78 25.6 20 -6.7 11 11 WNW 10 17 29.79 1009 10 16 0.00 0.00
1:51 pm 13:51 Sunny 78 25.6 21 -6.1 12 12 undefined N/A 29.77 1008 10 16 0.00 0.00
2:51 pm 14:51 Sunny 81 27.2 20 -6.7 10 10 WNW 16 26 29.73 1007 10 16 0.00 0.00
3:51 pm 15:51 Sunny 81 27.2 20 -6.7 10 10 WNW 21 33 29.71 1006 10 16 0.00 0.00
4:51 pm 16:51 Sunny 80 26.7 22 -5.6 11 11 NW 23 37 29.71 1006 10 16 0.00 0.00
5:51 pm 17:51 Sunny 78 25.6 21 -6.1 12 12 WNW 21 33 29.72 1006 10 16 0.00 0.00
6:51 pm 18:51 Sunny 75 23.9 21 -6.1 13 13 WNW 17 28 29.73 1007 10 16 0.00 0.00
7:51 pm 19:51 Clear 71 21.7 22 -5.6 16 16 WNW 15 24 29.76 1008 10 16 0.00 0.00
8:51 pm 20:51 Clear 68 20 22 -5.6 17 17 NW 9 15 29.79 1009 10 16 0.00 0.00
9:51 pm 21:51 Clear 67 19.4 25 -3.9 20 20 NNW 10 17 29.81 1010 10 16 0.00 0.00
10:51 pm 22:51 Clear 65 18.3 25 -3.9 22 22 NW 12 19 29.81 1009 10 16 0.00 0.00
11:51 pm 23:51 Clear 63 17.2 25 -3.9 24 24 NW 9 15 29.80 1009 10 16 0.00 0.00

Powered by AerisWeather